[[{"header":{"parameterUnit":"m.s-1","parameterCategory":1,"la1":30.2991,"la2":30.254,"lo1":-89.0895,"lo2":-89.0444,"dy":0.0017,"dx":0.0017,"nx":28,"ny":28,"refTime":"2025-06-17T21:00:00:Z","depth":0,"parameterNumber":2,"parameterNumberName":"U-component_of_WINDS"},"data":[0,0,0,0,0,0,0,0,0,0,0,0,0,0,0,0,0,0,0,0,0,0,0,0,0,0,0,0,0,0,0,0,0,0,0,0,0,0,0,0,0,0,0,0,0,0,0,0,0,0,0,0,0,0,0,0,0,0,-0.3545,-0.3544,0,-0.3446,-0.3445,-0.3444,-0.3393,-0.3393,-0.3393,-0.3393,-0.329,-0.3288,-0.3285,0,0,0,0,0,0,0,0,0,0,0,0,0,-0.369,-0.3688,-0.3545,-0.3544,-0.3542,-0.3446,-0.3445,-0.3443,-0.3393,-0.3393,-0.3393,-0.3393,-0.3291,-0.3288,-0.3285,0,0,0,0,0,0,0,0,0,0,0,0,0,-0.3613,-0.3687,-0.3545,-0.3506,-0.3501,-0.3446,-0.3445,-0.3443,-0.3393,-0.3393,-0.3393,-0.3393,-0.3292,-0.3288,-0.3284,-0.3261,0,0,-0.3272,-0.327,0,0,0,0,0,0,0,0,-0.3617,-0.3608,-0.3513,-0.3508,-0.3503,-0.3432,-0.3458,-0.3382,-0.3393,-0.3434,-0.3393,-0.3393,-0.3337,-0.333,-0.3311,-0.3256,-0.3252,-0.3272,-0.3269,-0.3268,-0.3266,0,0,0,0,0,0,0,-0.3623,-0.3612,-0.3506,-0.3511,-0.3505,-0.3493,-0.3482,-0.3444,-0.3387,-0.343,-0.3426,-0.3415,-0.3335,-0.3315,-0.3308,-0.325,-0.3272,-0.3268,-0.3266,-0.3264,-0.3173,-0.3173,0,0,0,0,0,0,-0.3635,-0.3616,-0.3509,-0.3503,-0.3561,-0.349,-0.3478,-0.3455,-0.3387,-0.3377,-0.3416,-0.3413,-0.3322,-0.3313,-0.3305,-0.3273,-0.3268,-0.3264,-0.3261,-0.3173,-0.3173,-0.3173,0,0,0,0,0,0,-0.3638,-0.3625,-0.3513,-0.3558,-0.3543,-0.3488,-0.3462,-0.3453,-0.3433,-0.3376,-0.3366,-0.3406,-0.3322,-0.331,-0.3273,-0.3269,-0.3262,-0.3258,-0.3173,-0.3173,-0.3173,-0.3211,0,0,0,0,0,0,-0.3642,-0.3627,-0.3617,-0.3559,-0.3541,-0.3482,-0.3462,-0.3451,-0.3426,-0.3423,-0.3365,-0.3355,-0.3321,-0.3279,-0.3269,-0.3263,-0.3255,-0.3173,-0.3173,-0.3173,-0.321,-0.3212,-0.3214,0,0,0,0,0,-0.3648,-0.3631,-0.3617,-0.3604,-0.3528,-0.3482,-0.3472,-0.3433,-0.3426,-0.3416,-0.338,-0.3357,-0.3272,-0.3276,-0.3263,-0.3257,-0.3173,-0.3173,-0.3173,-0.3208,-0.3212,-0.3214,0,0,0,0,0,0,-0.369,-0.3623,-0.3606,-0.357,-0.3533,-0.3474,-0.346,-0.3438,-0.3401,-0.3399,-0.3352,-0.3339,-0.3306,-0.3278,-0.3284,-0.3232,-0.322,-0.3218,-0.3251,-0.3254,-0.3256,-0.3263,-0.3252,0,0,0,0,0,-0.3696,-0.3665,-0.3607,-0.3581,-0.3563,-0.3515,-0.3494,-0.3468,-0.3426,-0.341,-0.3371,-0.3332,-0.3296,-0.3273,-0.3237,-0.3206,-0.3193,-0.3196,-0.3198,-0.32,-0.3198,-0.318,-0.3181,-0.3173,-0.3173,-0.3173,0,0,-0.3706,-0.3666,-0.3648,-0.3589,-0.3556,-0.3525,-0.3502,-0.347,-0.3446,-0.3405,-0.3367,-0.3337,-0.3291,-0.3256,-0.3239,-0.3232,-0.3198,-0.32,-0.3202,-0.3199,-0.318,-0.3181,-0.3182,-0.3173,-0.3173,-0.3173,0,0,-0.3709,-0.3675,-0.365,-0.3619,-0.357,-0.3539,-0.3533,-0.3478,-0.3457,-0.3418,-0.3387,-0.3359,-0.3298,-0.3266,-0.3242,-0.3236,-0.3213,-0.3226,-0.3237,-0.322,-0.3221,-0.3221,-0.3219,-0.3219,-0.3224,-0.3224,-0.3225,0,-0.3728,-0.368,-0.364,-0.361,-0.3585,-0.3548,-0.3522,-0.3493,-0.3436,-0.3419,-0.3412,-0.3337,-0.3302,-0.326,-0.3259,-0.3241,-0.3233,-0.3231,-0.3224,-0.3224,-0.3224,-0.3221,-0.3221,-0.3226,-0.3226,-0.3226,-0.3226,0,-0.3706,-0.3673,-0.3659,-0.3605,-0.3578,-0.3551,-0.3508,-0.3486,-0.3463,-0.3432,-0.3394,-0.3352,-0.3307,-0.3296,-0.3272,-0.3251,-0.3248,-0.3233,-0.322,-0.3227,-0.3224,-0.3223,-0.3229,-0.3228,-0.3228,-0.3227,0,0,-0.3731,-0.3657,-0.3652,-0.3628,-0.3573,-0.3547,-0.3518,-0.3475,-0.3458,-0.342,-0.3395,-0.3346,-0.3332,-0.3305,-0.3278,-0.3263,-0.3262,-0.325,-0.3248,-0.3254,-0.3236,-0.3247,-0.3246,-0.3247,-0.3246,-0.3246,-0.324,0,-0.3726,-0.3672,-0.3637,-0.3598,-0.3568,-0.3533,-0.3508,-0.3472,-0.3443,-0.3413,-0.3382,-0.3348,-0.3332,-0.3316,-0.33,-0.3265,-0.3257,-0.3265,-0.3223,-0.3222,-0.3235,-0.3245,-0.3256,-0.3252,-0.3238,-0.3238,-0.3238,0,-0.3712,-0.3676,-0.3634,-0.3584,-0.357,-0.3548,-0.3507,-0.3479,-0.3438,-0.3418,-0.3389,-0.3362,-0.3331,-0.3322,-0.3278,-0.3285,-0.3266,-0.3246,-0.3245,-0.3239,-0.323,-0.3238,-0.3249,-0.3249,-0.3236,-0.3236,-0.3236,0,-0.3735,-0.3676,-0.3643,-0.3624,-0.3564,-0.355,-0.3524,-0.3483,-0.346,-0.3424,-0.3409,-0.337,-0.3348,-0.3319,-0.3282,-0.3279,-0.3242,-0.323,-0.3225,-0.3226,-0.3218,-0.3219,-0.3226,-0.3207,-0.3207,-0.3207,-0.3207,0,-0.3732,-0.3708,-0.3653,-0.3633,-0.3605,-0.3565,-0.3539,-0.3511,-0.3475,-0.3449,-0.3416,-0.3393,-0.3346,-0.3317,-0.3288,-0.3257,-0.3247,-0.3231,-0.3223,-0.3233,-0.3235,-0.3219,-0.3218,-0.3207,-0.3207,-0.3207,-0.3207,0,-0.3752,-0.3714,-0.3676,-0.3624,-0.361,-0.3592,-0.3547,-0.3526,-0.3497,-0.3465,-0.3455,-0.3409,-0.3373,-0.3334,-0.3285,-0.3265,-0.3236,-0.3225,-0.325,-0.3245,-0.3242,-0.3243,-0.3238,-0.3236,-0.322,-0.322,-0.322,0,-0.3752,-0.3733,-0.3679,-0.366,-0.3635,-0.3604,-0.3581,-0.3542,-0.3519,-0.3472,-0.3457,-0.3419,-0.3387,-0.3331,-0.3293,-0.3256,-0.3244,-0.3245,-0.3238,-0.3249,-0.3244,-0.3245,-0.3243,-0.3247,-0.3247,-0.3247,-0.3248,0,-0.3757,-0.374,-0.3708,-0.367,-0.3643,-0.3611,-0.3578,-0.3564,-0.3518,-0.3494,-0.3458,-0.3433,-0.3384,-0.3346,-0.3305,-0.3279,-0.3256,-0.3251,-0.3247,-0.3257,-0.3272,-0.3263,-0.3255,-0.325,-0.325,-0.325,-0.325,-0.325,-0.3767,-0.3749,-0.3708,-0.3674,-0.3645,-0.3615,-0.3594,-0.3562,-0.3531,-0.3488,-0.3467,-0.3431,-0.3392,-0.3334,-0.3308,-0.328,-0.3272,-0.3268,-0.3266,-0.3266,-0.3268,-0.3277,-0.3272,-0.3272,-0.3272,-0.3272,-0.3271,0,-0.377,-0.3743,-0.3712,-0.3667,-0.364,-0.3622,-0.3585,-0.3564,-0.3532,-0.3498,-0.3467,-0.3426,-0.339,-0.335,-0.3312,-0.3297,-0.3285,-0.3288,-0.3288,-0.3283,-0.3277,-0.3283,-0.3298,-0.3298,-0.3298,-0.3298,-0.3298,-0.3298,-0.3769,-0.3737,-0.3715,-0.3669,-0.3642,-0.3607,-0.3587,-0.3559,-0.3532,-0.3487,-0.3458,-0.3432,-0.3396,-0.3355,-0.3322,-0.3311,-0.3298,-0.3304,-0.329,-0.3285,-0.3283,-0.3281,-0.3287,-0.3302,-0.3302,-0.3298,-0.3298,-0.3298]},{"header":{"parameterUnit":"m.s-1","parameterCategory":1,"la1":30.2991,"la2":30.254,"lo1":-89.0895,"lo2":-89.0444,"dy":0.0017,"dx":0.0017,"nx":28,"ny":28,"refTime":"2025-06-17T21:00:00:Z","depth":0,"parameterNumber":3,"parameterNumberName":"V-component_of_WINDS"},"data":[0,0,0,0,0,0,0,0,0,0,0,0,0,0,0,0,0,0,0,0,0,0,0,0,0,0,0,0,0,0,0,0,0,0,0,0,0,0,0,0,0,0,0,0,0,0,0,0,0,0,0,0,0,0,0,0,0,0,4.9275,4.9274,0,4.9227,4.9227,4.9226,4.9199,4.9199,4.9199,4.9199,4.9145,4.9144,4.9143,0,0,0,0,0,0,0,0,0,0,0,0,0,4.9338,4.9337,4.9275,4.9274,4.9274,4.9227,4.9227,4.9226,4.9199,4.9199,4.9199,4.9199,4.9146,4.9144,4.9143,0,0,0,0,0,0,0,0,0,0,0,0,0,4.9303,4.9337,4.9275,4.9255,4.9253,4.9228,4.9227,4.9226,4.9199,4.9199,4.9199,4.9199,4.9146,4.9144,4.9142,4.9132,0,0,4.9136,4.9135,0,0,0,0,0,0,0,0,4.9305,4.93,4.9258,4.9256,4.9254,4.9219,4.923,4.9194,4.9199,4.9219,4.9199,4.9199,4.917,4.9166,4.9157,4.913,4.9128,4.9136,4.9135,4.9134,4.9133,0,0,0,0,0,0,0,4.9307,4.9302,4.9256,4.9258,4.9255,4.9247,4.9242,4.9223,4.9196,4.9217,4.9215,4.921,4.9168,4.9159,4.9155,4.9127,4.9136,4.9134,4.9133,4.9132,4.909,4.909,0,0,0,0,0,0,4.9314,4.9305,4.9257,4.9255,4.928,4.9246,4.924,4.923,4.9196,4.919,4.9211,4.9209,4.9162,4.9158,4.9153,4.914,4.9134,4.9132,4.9131,4.9089,4.909,4.909,0,0,0,0,0,0,4.9315,4.931,4.9259,4.9279,4.9272,4.9245,4.9234,4.9229,4.922,4.9191,4.9185,4.9206,4.9162,4.9156,4.9138,4.9138,4.9131,4.9129,4.9089,4.909,4.909,4.9113,0,0,0,0,0,0,4.9317,4.931,4.9307,4.9279,4.9271,4.9246,4.9234,4.9229,4.9217,4.9215,4.9185,4.918,4.9162,4.9141,4.9136,4.9135,4.9128,4.9089,4.9089,4.909,4.9112,4.9114,4.9115,0,0,0,0,0,4.9319,4.9315,4.9307,4.9302,4.9267,4.9246,4.9242,4.9222,4.9217,4.9213,4.9195,4.9181,4.9139,4.914,4.9134,4.9132,4.9089,4.9089,4.909,4.9111,4.9113,4.9115,0,0,0,0,0,0,4.9341,4.931,4.9302,4.9288,4.927,4.9242,4.9236,4.9225,4.9206,4.9205,4.918,4.9173,4.9158,4.9143,4.9145,4.912,4.9112,4.9111,4.9131,4.9133,4.9134,4.9138,4.9126,0,0,0,0,0,4.9345,4.9332,4.9305,4.9296,4.9287,4.9264,4.9254,4.924,4.922,4.9212,4.9192,4.9171,4.9154,4.9142,4.9124,4.911,4.9102,4.9105,4.9107,4.9108,4.9108,4.9099,4.91,4.909,4.909,4.909,0,0,4.9351,4.9333,4.9326,4.93,4.9284,4.9271,4.9257,4.9243,4.9232,4.9209,4.9192,4.9176,4.9152,4.9136,4.9127,4.9123,4.9109,4.9108,4.911,4.9108,4.9099,4.91,4.9101,4.909,4.909,4.909,0,0,4.9356,4.9341,4.9332,4.9317,4.9295,4.9279,4.9277,4.9251,4.924,4.9222,4.9205,4.9191,4.9161,4.9144,4.9132,4.9132,4.9119,4.9127,4.9135,4.9127,4.9128,4.9128,4.9128,4.9128,4.9126,4.9126,4.9126,0,4.9367,4.9347,4.9328,4.9316,4.9304,4.9285,4.9275,4.9261,4.9233,4.9225,4.922,4.9183,4.9165,4.9145,4.9145,4.9136,4.9132,4.913,4.9129,4.913,4.913,4.913,4.913,4.9127,4.9127,4.9127,4.9127,0,4.9361,4.9348,4.9343,4.9318,4.9306,4.9295,4.9273,4.9263,4.9251,4.9236,4.9218,4.9196,4.9173,4.9167,4.9154,4.9146,4.9143,4.9134,4.9126,4.9132,4.9132,4.9131,4.9129,4.9129,4.9128,4.9128,0,0,4.9378,4.9345,4.9343,4.9332,4.9306,4.9295,4.9282,4.9262,4.9254,4.9235,4.9224,4.9199,4.9191,4.9177,4.9162,4.9155,4.9157,4.9147,4.9146,4.915,4.9146,4.9153,4.9153,4.9148,4.9148,4.9148,4.9148,0,4.9379,4.9358,4.9341,4.9325,4.9312,4.9294,4.9283,4.9265,4.9251,4.9236,4.9219,4.9203,4.9193,4.9185,4.9177,4.9158,4.9156,4.9158,4.9136,4.9136,4.9143,4.9152,4.916,4.916,4.9147,4.9147,4.9147,0,4.9378,4.9362,4.9346,4.9322,4.9316,4.9307,4.9287,4.9274,4.9254,4.9243,4.9229,4.9214,4.9199,4.9192,4.9171,4.9173,4.9163,4.9152,4.9152,4.9149,4.9142,4.915,4.916,4.916,4.9147,4.9147,4.9147,0,4.9392,4.9366,4.9354,4.9345,4.9317,4.9311,4.9298,4.9278,4.9267,4.9249,4.9242,4.9222,4.9211,4.9196,4.9175,4.9172,4.9156,4.9147,4.9146,4.9147,4.9143,4.9144,4.9152,4.9137,4.9137,4.9137,4.9137,0,4.9395,4.9386,4.936,4.9352,4.9341,4.9321,4.931,4.9296,4.9278,4.9266,4.9248,4.9237,4.9211,4.9197,4.918,4.9165,4.916,4.9151,4.9147,4.9152,4.9154,4.9145,4.9145,4.9137,4.9137,4.9137,4.9137,0,4.9409,4.9391,4.9376,4.9351,4.9345,4.9338,4.9316,4.9307,4.9292,4.9277,4.9273,4.9248,4.923,4.9209,4.9183,4.9173,4.9159,4.9152,4.9166,4.9164,4.9164,4.9164,4.9167,4.9167,4.9152,4.9152,4.9153,0,4.9412,4.9405,4.938,4.9372,4.9361,4.9347,4.9337,4.9317,4.9306,4.9283,4.9276,4.9258,4.9242,4.9214,4.9193,4.9173,4.9166,4.9169,4.9163,4.917,4.9166,4.9167,4.9166,4.917,4.917,4.9171,4.9171,0,4.942,4.9412,4.9398,4.9381,4.937,4.9355,4.934,4.9333,4.931,4.9299,4.9282,4.9269,4.9244,4.9226,4.9204,4.919,4.9176,4.9173,4.9172,4.9178,4.9186,4.9182,4.917,4.9173,4.9173,4.9173,4.9172,4.9172,4.9428,4.9421,4.9403,4.9388,4.9375,4.9362,4.9352,4.9337,4.9322,4.9302,4.9291,4.9273,4.9253,4.9223,4.9209,4.9194,4.919,4.9188,4.9187,4.9187,4.9189,4.9189,4.919,4.919,4.919,4.919,4.919,0,4.9435,4.9423,4.941,4.939,4.9378,4.9369,4.9351,4.9342,4.9327,4.931,4.9296,4.9276,4.9258,4.9236,4.9216,4.9209,4.9202,4.9204,4.9205,4.9202,4.9194,4.9197,4.921,4.921,4.921,4.921,4.921,4.921,4.9437,4.9425,4.9415,4.9396,4.9383,4.9368,4.9359,4.9346,4.9332,4.9311,4.9297,4.9284,4.9265,4.9244,4.9227,4.9221,4.9214,4.9218,4.921,4.9204,4.9202,4.92,4.9203,4.9217,4.9217,4.9219,4.9219,4.9219]}]]